Flag for U.S.A. Weather past 2 weeks in Fairbanks, Alaska, U.S.A.

Now
-24 °F

Clear.


Feels Like: -24 °F
Forecast: -25 / -14 °F
Wind: No wind

Location: Wainwright U. S. Army Airfield

Current Time: Feb 1, 2015 at 1:30:34 AM

Latest Report: Feb 1, 2015 at 12:56 AM


Visibility: 10 mi

Pressure: 30.62 "Hg

Humidity: 68%

Dew point: -31 °F

Location of FairbanksLocation

Historic Weather in Fairbanks — Graph

°F

Fairbanks temperature yesterday

Maximum temperature yesterday: -16 °F (at 2:56 PM)
Minimum temperature yesterday: -29 °F (at 3:56 AM)
Average temperature yesterday: -24 °F

Past Weeks' High & Low Weather Summary

 TemperatureHumidityPressure
High12 °F (Jan 16, 11:56 PM)95% (Jan 24, 11:56 AM)30.93 "Hg (Jan 24, 11:56 AM)
Low-47 °F (Jan 26, 5:56 AM)55% (Jan 30, 2:55 PM)29.13 "Hg (Jan 16, 11:56 PM)
Average-19 °F77%30.03 "Hg
* Reported Jan 16 11:56 PM — Jan 31 11:56 PM, Fairbanks, Weather by CustomWeather, © 2014

Note: Actual official high and low records may vary slightly from our data, if they occured in-between our weather recording intervals... More about our weather records

Advertising

Fairbanks weather history for previous 24 hours

 ConditionsComfort  
Time TempWeatherWind HumidityBarometerVisibility
11:56 PM
Jan 31
-23 °FClear.No wind69%30.62 "Hg10 mi
10:56 PM-23 °FClear.No wind73%30.65 "Hg10 mi
9:56 PM-22 °FClear.No wind73%30.66 "Hg10 mi
8:56 PM-21 °FClear.No wind72%30.68 "Hg10 mi
7:56 PM-22 °FClear.No wind77%30.68 "Hg10 mi
6:56 PM-20 °FClear.No wind76%30.69 "Hg9 mi
5:56 PM-21 °FClear.No wind76%30.70 "Hg10 mi
4:56 PM-20 °FClear.No wind73%30.71 "Hg8 mi
3:56 PM-20 °FSunny.No wind73%30.72 "Hg9 mi
2:56 PM-16 °FSunny.No wind74%30.74 "Hg8 mi
1:56 PM-19 °FSunny.No wind72%30.76 "Hg7 mi
12:56 PM-22 °FSunny.No wind77%30.78 "Hg10 mi
11:56 AM-24 °FSunny.No wind68%30.80 "Hg10 mi
10:56 AM-27 °FSunny.No wind72%30.80 "Hg10 mi
9:56 AM-28 °FSunny.No wind71%30.81 "Hg10 mi
8:56 AM-28 °FClear.No wind71%30.81 "Hg10 mi
7:56 AM-29 °FClear.No wind72%30.81 "Hg10 mi
6:56 AM-29 °FClear.No wind72%30.83 "Hg10 mi
5:56 AM-29 °FClear.No wind72%30.83 "Hg10 mi
4:56 AM-29 °FClear.No wind72%30.84 "Hg10 mi
3:56 AM-29 °FClear.No windN/A30.84 "Hg10 mi
2:56 AM-27 °FClear.No wind68%30.82 "Hg10 mi
1:56 AM-28 °FClear.No wind71%30.82 "Hg9 mi
Weather by CustomWeather, © 2014

See weather overviewHow to use our weather pages